JACK K

Last updated on Wed Dec 31 2025 00:02:07 GMT+0000 (Coordinated Universal Time)

1 66659U 25274K 25364.36853206 .00004491 00000+0 43770-3 0 9996 2 66659 97.7405 291.2932 0012425 214.3878 145.6539 14.92920637 5035
UTC large
Height (km)
Speed (km/s)
/
Latitude / Longitude
Inclination (degrees)
Orbital Period (minutes)
Azimuth
Elevation
Range (km)
Doppler Factor

Next 0 passes for location: London (51.5072 / 0.1276)

Sorry there are no passes over London.